Year,Month,Day,Hour,Minute,Value (Times are PST for temperature in C)
2013,03,25,00,00,4.60
2013,03,25,00,01,4.60
2013,03,25,00,02,4.60
2013,03,25,00,03,4.60
2013,03,25,00,04,4.60
2013,03,25,00,05,4.70
2013,03,25,00,06,4.70
2013,03,25,00,07,4.70
2013,03,25,00,08,4.70
2013,03,25,00,09,4.60
2013,03,25,00,10,4.60
2013,03,25,00,11,4.60
2013,03,25,00,12,4.60
2013,03,25,00,13,4.60
2013,03,25,00,14,4.60
2013,03,25,00,15,4.50
2013,03,25,00,16,4.50
2013,03,25,00,17,4.40
2013,03,25,00,18,4.40
2013,03,25,00,19,4.40
2013,03,25,00,20,4.40
2013,03,25,00,21,4.40
2013,03,25,00,22,4.40
2013,03,25,00,23,4.30
2013,03,25,00,24,4.30
2013,03,25,00,25,4.30
2013,03,25,00,26,4.30
2013,03,25,00,27,4.30
2013,03,25,00,28,4.30
2013,03,25,00,29,4.30
2013,03,25,00,30,4.20
2013,03,25,00,31,4.20
2013,03,25,00,32,4.20
2013,03,25,00,33,4.20
2013,03,25,00,34,4.20
2013,03,25,00,35,4.20
2013,03,25,00,36,4.20
2013,03,25,00,37,4.20
2013,03,25,00,38,4.20
2013,03,25,00,39,4.20
2013,03,25,00,40,4.10
2013,03,25,00,41,4.10
2013,03,25,00,42,4.10
2013,03,25,00,43,4.10
2013,03,25,00,44,4.10
2013,03,25,00,45,4.10
2013,03,25,00,46,4.10
2013,03,25,00,47,4.10
2013,03,25,00,48,4.10
2013,03,25,00,49,4.10
2013,03,25,00,50,4.10
2013,03,25,00,51,4.10
2013,03,25,00,52,4.00
2013,03,25,00,53,4.00
2013,03,25,00,54,4.00
2013,03,25,00,55,4.00
2013,03,25,00,56,4.00
2013,03,25,00,57,4.00
2013,03,25,00,58,3.90
2013,03,25,00,59,3.90
2013,03,25,01,00,3.90
2013,03,25,01,01,3.90
2013,03,25,01,02,3.90
2013,03,25,01,03,3.90
2013,03,25,01,04,3.90
2013,03,25,01,05,3.90
2013,03,25,01,06,3.90
2013,03,25,01,07,4.00
2013,03,25,01,08,4.00
2013,03,25,01,09,4.00
2013,03,25,01,10,4.00
2013,03,25,01,11,4.10
2013,03,25,01,12,4.10
2013,03,25,01,13,4.10
2013,03,25,01,14,4.10
2013,03,25,01,15,4.10
2013,03,25,01,16,4.10
2013,03,25,01,17,4.10
2013,03,25,01,18,4.10
2013,03,25,01,19,4.10
2013,03,25,01,20,4.10
2013,03,25,01,21,4.10
2013,03,25,01,22,4.10
2013,03,25,01,23,4.00
2013,03,25,01,24,4.00
2013,03,25,01,25,4.00
2013,03,25,01,26,3.90
2013,03,25,01,27,3.90
2013,03,25,01,28,3.90
2013,03,25,01,29,3.90
2013,03,25,01,30,3.80
2013,03,25,01,31,3.80
2013,03,25,01,32,3.80
2013,03,25,01,33,3.80
2013,03,25,01,34,3.80
2013,03,25,01,35,3.80
2013,03,25,01,36,3.70
2013,03,25,01,37,3.70
2013,03,25,01,38,3.70
2013,03,25,01,39,3.70
2013,03,25,01,40,3.70
2013,03,25,01,41,3.70
2013,03,25,01,42,3.70
2013,03,25,01,43,3.60
2013,03,25,01,44,3.60
2013,03,25,01,45,3.60
2013,03,25,01,46,3.60
2013,03,25,01,47,3.60
2013,03,25,01,48,3.60
2013,03,25,01,49,3.60
2013,03,25,01,50,3.60
2013,03,25,01,51,3.60
2013,03,25,01,52,3.60
2013,03,25,01,53,3.50
2013,03,25,01,54,3.50
2013,03,25,01,55,3.50
2013,03,25,01,56,3.50
2013,03,25,01,57,3.50
2013,03,25,01,58,3.50
2013,03,25,01,59,3.40
2013,03,25,02,00,3.40
2013,03,25,02,01,3.40
2013,03,25,02,02,3.40
2013,03,25,02,03,3.40
2013,03,25,02,04,3.40
2013,03,25,02,05,3.40
2013,03,25,02,06,3.40
2013,03,25,02,07,3.30
2013,03,25,02,08,3.30
2013,03,25,02,09,3.30
2013,03,25,02,10,3.30
2013,03,25,02,11,3.30
2013,03,25,02,12,3.30
2013,03,25,02,13,3.30
2013,03,25,02,14,3.30
2013,03,25,02,15,3.30
2013,03,25,02,16,3.30
2013,03,25,02,17,3.30
2013,03,25,02,18,3.30
2013,03,25,02,19,3.30
2013,03,25,02,20,3.30
2013,03,25,02,21,3.30
2013,03,25,02,22,3.30
2013,03,25,02,23,3.30
2013,03,25,02,24,3.30
2013,03,25,02,25,3.30
2013,03,25,02,26,3.30
2013,03,25,02,27,3.30
2013,03,25,02,28,3.30
2013,03,25,02,29,3.30
2013,03,25,02,30,3.30
2013,03,25,02,31,3.30
2013,03,25,02,32,3.30
2013,03,25,02,33,3.30
2013,03,25,02,34,3.30
2013,03,25,02,35,3.30
2013,03,25,02,36,3.30
2013,03,25,02,37,3.30
2013,03,25,02,38,3.30
2013,03,25,02,39,3.30
2013,03,25,02,40,3.30
2013,03,25,02,41,3.30
2013,03,25,02,42,3.30
2013,03,25,02,43,3.30
2013,03,25,02,44,3.30
2013,03,25,02,45,3.30
2013,03,25,02,46,3.30
2013,03,25,02,47,3.30
2013,03,25,02,48,3.30
2013,03,25,02,49,3.30
2013,03,25,02,50,3.30
2013,03,25,02,51,3.30
2013,03,25,02,52,3.30
2013,03,25,02,53,3.30
2013,03,25,02,54,3.30
2013,03,25,02,55,3.30
2013,03,25,02,56,3.30
2013,03,25,02,57,3.30
2013,03,25,02,58,3.30
2013,03,25,02,59,3.30
2013,03,25,03,00,3.30
2013,03,25,03,01,3.30
2013,03,25,03,02,3.30
2013,03,25,03,03,3.30
2013,03,25,03,04,3.30
2013,03,25,03,05,3.30
2013,03,25,03,06,3.30
2013,03,25,03,07,3.30
2013,03,25,03,08,3.30
2013,03,25,03,09,3.30
2013,03,25,03,10,3.30
2013,03,25,03,11,3.30
2013,03,25,03,12,3.30
2013,03,25,03,13,3.30
2013,03,25,03,14,3.30
2013,03,25,03,15,3.30
2013,03,25,03,16,3.30
2013,03,25,03,17,3.30
2013,03,25,03,18,3.30
2013,03,25,03,19,3.30
2013,03,25,03,20,3.30
2013,03,25,03,21,3.30
2013,03,25,03,22,3.30
2013,03,25,03,23,3.30
2013,03,25,03,24,3.30
2013,03,25,03,25,3.30
2013,03,25,03,26,3.30
2013,03,25,03,27,3.30
2013,03,25,03,28,3.30
2013,03,25,03,29,3.30
2013,03,25,03,30,3.30
2013,03,25,03,31,3.30
2013,03,25,03,32,3.30
2013,03,25,03,33,3.30
2013,03,25,03,34,3.30
2013,03,25,03,35,3.30
2013,03,25,03,36,3.30
2013,03,25,03,37,3.30
2013,03,25,03,38,3.30
2013,03,25,03,39,3.30
2013,03,25,03,40,3.20
2013,03,25,03,41,3.20
2013,03,25,03,42,3.20
2013,03,25,03,43,3.20
2013,03,25,03,44,3.30
2013,03,25,03,45,3.30
2013,03,25,03,46,3.30
2013,03,25,03,47,3.30
2013,03,25,03,48,3.30
2013,03,25,03,49,3.30
2013,03,25,03,50,3.30
2013,03,25,03,51,3.30
2013,03,25,03,52,3.30
2013,03,25,03,53,3.30
2013,03,25,03,54,3.30
2013,03,25,03,55,3.30
2013,03,25,03,56,3.30
2013,03,25,03,57,3.30
2013,03,25,03,58,3.30
2013,03,25,03,59,3.30
2013,03,25,04,00,3.30
2013,03,25,04,01,3.30
2013,03,25,04,02,3.30
2013,03,25,04,03,3.30
2013,03,25,04,04,3.20
2013,03,25,04,05,3.20
2013,03,25,04,06,3.20
2013,03,25,04,07,3.20
2013,03,25,04,08,3.20
2013,03,25,04,09,3.20
2013,03,25,04,10,3.20
2013,03,25,04,11,3.20
2013,03,25,04,12,3.20
2013,03,25,04,13,3.20
2013,03,25,04,14,3.20
2013,03,25,04,15,3.20
2013,03,25,04,16,3.20
2013,03,25,04,17,3.20
2013,03,25,04,18,3.20
2013,03,25,04,19,3.20
2013,03,25,04,20,3.20
2013,03,25,04,21,3.20
2013,03,25,04,22,3.20
2013,03,25,04,23,3.20
2013,03,25,04,24,3.20
2013,03,25,04,25,3.20
2013,03,25,04,26,3.10
2013,03,25,04,27,3.10
2013,03,25,04,28,3.10
2013,03,25,04,29,3.10
2013,03,25,04,30,3.10
2013,03,25,04,31,3.10
2013,03,25,04,32,3.10
2013,03,25,04,33,3.10
2013,03,25,04,34,3.10
2013,03,25,04,35,3.10
2013,03,25,04,36,3.10
2013,03,25,04,37,3.20
2013,03,25,04,38,3.20
2013,03,25,04,39,3.20
2013,03,25,04,40,3.20
2013,03,25,04,41,3.20
2013,03,25,04,42,3.20
2013,03,25,04,43,3.20
2013,03,25,04,44,3.20
2013,03,25,04,45,3.20
2013,03,25,04,46,3.20
2013,03,25,04,47,3.20
2013,03,25,04,48,3.20
2013,03,25,04,49,3.20
2013,03,25,04,50,3.20
2013,03,25,04,51,3.20
2013,03,25,04,52,3.20
2013,03,25,04,53,3.20
2013,03,25,04,54,3.20
2013,03,25,04,55,3.20
2013,03,25,04,56,3.20
2013,03,25,04,57,3.20
2013,03,25,04,58,3.20
2013,03,25,04,59,3.20
2013,03,25,05,00,3.20
2013,03,25,05,01,3.10
2013,03,25,05,02,3.10
2013,03,25,05,03,3.10
2013,03,25,05,04,3.10
2013,03,25,05,05,3.10
2013,03,25,05,06,3.10
2013,03,25,05,07,3.10
2013,03,25,05,08,3.10
2013,03,25,05,09,3.10
2013,03,25,05,10,3.10
2013,03,25,05,11,3.10
2013,03,25,05,12,3.10
2013,03,25,05,13,3.10
2013,03,25,05,14,3.10
2013,03,25,05,15,3.10
2013,03,25,05,16,3.10
2013,03,25,05,17,3.10
2013,03,25,05,18,3.10
2013,03,25,05,19,3.10
2013,03,25,05,20,3.10
2013,03,25,05,21,3.10
2013,03,25,05,22,3.10
2013,03,25,05,23,3.10
2013,03,25,05,24,3.10
2013,03,25,05,25,3.10
2013,03,25,05,26,3.10
2013,03,25,05,27,3.10
2013,03,25,05,28,3.10
2013,03,25,05,29,3.10
2013,03,25,05,30,3.10
2013,03,25,05,31,3.10
2013,03,25,05,32,3.10
2013,03,25,05,33,3.10
2013,03,25,05,34,3.10
2013,03,25,05,35,3.10
2013,03,25,05,36,3.10
2013,03,25,05,37,3.10
2013,03,25,05,38,3.10
2013,03,25,05,39,3.10
2013,03,25,05,40,3.10
2013,03,25,05,41,3.10
2013,03,25,05,42,3.10
2013,03,25,05,43,3.10
2013,03,25,05,44,3.10
2013,03,25,05,45,3.10
2013,03,25,05,46,3.10
2013,03,25,05,47,3.10
2013,03,25,05,48,3.10
2013,03,25,05,49,3.10
2013,03,25,05,50,3.10
2013,03,25,05,51,3.10
2013,03,25,05,52,3.10
2013,03,25,05,53,3.10
2013,03,25,05,54,3.10
2013,03,25,05,55,3.10
2013,03,25,05,56,3.00
2013,03,25,05,57,3.00
2013,03,25,05,58,3.00
2013,03,25,05,59,3.00
2013,03,25,06,00,3.10
2013,03,25,06,01,3.10
2013,03,25,06,02,3.10
2013,03,25,06,03,3.10
2013,03,25,06,04,3.10
2013,03,25,06,05,3.10
2013,03,25,06,06,3.10
2013,03,25,06,07,3.10
2013,03,25,06,08,3.10
2013,03,25,06,09,3.10
2013,03,25,06,10,3.10
2013,03,25,06,11,3.10
2013,03,25,06,12,3.10
2013,03,25,06,13,3.10
2013,03,25,06,14,3.10
2013,03,25,06,15,3.10
2013,03,25,06,16,3.10
2013,03,25,06,17,3.10
2013,03,25,06,18,3.10
2013,03,25,06,19,3.10
2013,03,25,06,20,3.10
2013,03,25,06,21,3.10
2013,03,25,06,22,3.10
2013,03,25,06,23,3.10
2013,03,25,06,24,3.10
2013,03,25,06,25,3.10
2013,03,25,06,26,3.10
2013,03,25,06,27,3.10
2013,03,25,06,28,3.10
2013,03,25,06,29,3.10
2013,03,25,06,30,3.10
2013,03,25,06,31,3.10
2013,03,25,06,32,3.10
2013,03,25,06,33,3.10
2013,03,25,06,34,3.10
2013,03,25,06,35,3.10
2013,03,25,06,36,3.10
2013,03,25,06,37,3.10
2013,03,25,06,38,3.10
2013,03,25,06,39,3.10
2013,03,25,06,40,3.20
2013,03,25,06,41,3.20
2013,03,25,06,42,3.20
2013,03,25,06,43,3.20
2013,03,25,06,44,3.20
2013,03,25,06,45,3.20
2013,03,25,06,46,3.20
2013,03,25,06,47,3.20
2013,03,25,06,48,3.20
2013,03,25,06,49,3.20
2013,03,25,06,50,3.20
2013,03,25,06,51,3.20
2013,03,25,06,52,3.20
2013,03,25,06,53,3.20
2013,03,25,06,54,3.20
2013,03,25,06,55,3.20
2013,03,25,06,56,3.20
2013,03,25,06,57,3.20
2013,03,25,06,58,3.20
2013,03,25,06,59,3.20
2013,03,25,07,00,3.20
2013,03,25,07,01,3.20
2013,03,25,07,02,3.20
2013,03,25,07,03,3.20
2013,03,25,07,04,3.20
2013,03,25,07,05,3.20
2013,03,25,07,06,3.20
2013,03,25,07,07,3.20
2013,03,25,07,08,3.20
2013,03,25,07,09,3.20
2013,03,25,07,10,3.20
2013,03,25,07,11,3.20
2013,03,25,07,12,3.20
2013,03,25,07,13,3.20
2013,03,25,07,14,3.20
2013,03,25,07,15,3.20
2013,03,25,07,16,3.20
2013,03,25,07,17,3.20
2013,03,25,07,18,3.20
2013,03,25,07,19,3.20
2013,03,25,07,20,3.20
2013,03,25,07,21,3.20
2013,03,25,07,22,3.20
2013,03,25,07,23,3.20
2013,03,25,07,24,3.20
2013,03,25,07,25,3.20
2013,03,25,07,26,3.20
2013,03,25,07,27,3.20
2013,03,25,07,28,3.20
2013,03,25,07,29,3.30
2013,03,25,07,30,3.20
2013,03,25,07,31,3.30
2013,03,25,07,32,3.30
2013,03,25,07,33,3.30
2013,03,25,07,34,3.30
2013,03,25,07,35,3.30
2013,03,25,07,36,3.30
2013,03,25,07,37,3.30
2013,03,25,07,38,3.30
2013,03,25,07,39,3.30
2013,03,25,07,40,3.30
2013,03,25,07,41,3.30
2013,03,25,07,42,3.30
2013,03,25,07,43,3.30
2013,03,25,07,44,3.30
2013,03,25,07,45,3.30
2013,03,25,07,46,3.30
2013,03,25,07,47,3.30
2013,03,25,07,48,3.30
2013,03,25,07,49,3.30
2013,03,25,07,50,3.30
2013,03,25,07,51,3.40
2013,03,25,07,52,3.40
2013,03,25,07,53,3.40
2013,03,25,07,54,3.40
2013,03,25,07,55,3.40
2013,03,25,07,56,3.50
2013,03,25,07,57,3.50
2013,03,25,07,58,3.50
2013,03,25,07,59,3.60
2013,03,25,08,00,3.60
2013,03,25,08,01,3.60
2013,03,25,08,02,3.60
2013,03,25,08,03,3.70
2013,03,25,08,04,3.70
2013,03,25,08,05,3.70
2013,03,25,08,06,3.70
2013,03,25,08,07,3.70
2013,03,25,08,08,3.70
2013,03,25,08,09,3.70
2013,03,25,08,10,3.70
2013,03,25,08,11,3.80
2013,03,25,08,12,3.80
2013,03,25,08,13,3.80
2013,03,25,08,14,3.80
2013,03,25,08,15,3.80
2013,03,25,08,16,3.80
2013,03,25,08,17,3.90
2013,03,25,08,18,3.90
2013,03,25,08,19,3.90
2013,03,25,08,20,4.00
2013,03,25,08,21,4.10
2013,03,25,08,22,4.10
2013,03,25,08,23,4.10
2013,03,25,08,24,4.10
2013,03,25,08,25,4.20
2013,03,25,08,26,4.20
2013,03,25,08,27,4.20
2013,03,25,08,28,4.30
2013,03,25,08,29,4.30
2013,03,25,08,30,4.30
2013,03,25,08,31,4.40
2013,03,25,08,32,4.40
2013,03,25,08,33,4.40
2013,03,25,08,34,4.40
2013,03,25,08,35,4.50
2013,03,25,08,36,4.50
2013,03,25,08,37,4.50
2013,03,25,08,38,4.60
2013,03,25,08,39,4.60
2013,03,25,08,40,4.60
2013,03,25,08,41,4.60
2013,03,25,08,42,4.70
2013,03,25,08,43,4.70
2013,03,25,08,44,4.70
2013,03,25,08,45,4.80
2013,03,25,08,46,4.80
2013,03,25,08,47,4.80
2013,03,25,08,48,4.90
2013,03,25,08,49,4.90
2013,03,25,08,50,4.90
2013,03,25,08,51,5.00
2013,03,25,08,52,5.00
2013,03,25,08,53,5.10
2013,03,25,08,54,5.10
2013,03,25,08,55,5.20
2013,03,25,08,56,5.20
2013,03,25,08,57,5.30
2013,03,25,08,58,5.30
2013,03,25,08,59,5.30
2013,03,25,09,00,5.40
2013,03,25,09,01,5.50
2013,03,25,09,02,5.60
2013,03,25,09,03,5.60
2013,03,25,09,04,5.70
2013,03,25,09,05,5.80
2013,03,25,09,06,5.90
2013,03,25,09,07,6.00
2013,03,25,09,08,6.10
2013,03,25,09,09,6.10
2013,03,25,09,10,6.20
2013,03,25,09,11,6.30
2013,03,25,09,12,6.40
2013,03,25,09,13,6.50
2013,03,25,09,14,6.60
2013,03,25,09,15,6.70
2013,03,25,09,16,6.80
2013,03,25,09,17,6.90
2013,03,25,09,18,7.00
2013,03,25,09,19,7.10
2013,03,25,09,20,7.20
2013,03,25,09,21,7.20
2013,03,25,09,22,7.30
2013,03,25,09,23,7.30
2013,03,25,09,24,7.40
2013,03,25,09,25,7.40
2013,03,25,09,26,7.50
2013,03,25,09,27,7.50
2013,03,25,09,28,7.40
2013,03,25,09,29,7.40
2013,03,25,09,30,7.30
2013,03,25,09,31,7.20
2013,03,25,09,32,7.20
2013,03,25,09,33,7.10
2013,03,25,09,34,7.10
2013,03,25,09,35,7.10
2013,03,25,09,36,7.10
2013,03,25,09,37,7.10
2013,03,25,09,38,7.20
2013,03,25,09,39,7.20
2013,03,25,09,40,7.20
2013,03,25,09,41,7.20
2013,03,25,09,42,7.20
2013,03,25,09,43,7.20
2013,03,25,09,44,7.20
2013,03,25,09,45,7.10
2013,03,25,09,46,7.10
2013,03,25,09,47,7.00
2013,03,25,09,48,7.00
2013,03,25,09,49,7.00
2013,03,25,09,50,7.10
2013,03,25,09,51,7.10
2013,03,25,09,52,7.20
2013,03,25,09,53,7.20
2013,03,25,09,54,7.20
2013,03,25,09,55,7.20
2013,03,25,09,56,7.20
2013,03,25,09,57,7.20
2013,03,25,09,58,7.20
2013,03,25,09,59,7.30
2013,03,25,10,00,7.30
2013,03,25,10,01,7.30
2013,03,25,10,02,7.30
2013,03,25,10,03,7.30
2013,03,25,10,04,7.30
2013,03,25,10,05,7.20
2013,03,25,10,06,7.20
2013,03,25,10,07,7.20
2013,03,25,10,08,7.20
2013,03,25,10,09,7.20
2013,03,25,10,10,7.20
2013,03,25,10,11,7.20
2013,03,25,10,12,7.20
2013,03,25,10,13,7.20
2013,03,25,10,14,7.20
2013,03,25,10,15,7.20
2013,03,25,10,16,7.20
2013,03,25,10,17,7.20
2013,03,25,10,18,7.20
2013,03,25,10,19,7.20
2013,03,25,10,20,7.20
2013,03,25,10,21,7.20
2013,03,25,10,22,7.10
2013,03,25,10,23,7.10
2013,03,25,10,24,7.10
2013,03,25,10,25,7.10
2013,03,25,10,26,7.20
2013,03,25,10,27,7.20
2013,03,25,10,28,7.20
2013,03,25,10,29,7.20
2013,03,25,10,30,7.10
2013,03,25,10,31,7.10
2013,03,25,10,32,7.10
2013,03,25,10,33,7.10
2013,03,25,10,34,7.20
2013,03,25,10,35,7.20
2013,03,25,10,36,7.20
2013,03,25,10,37,7.30
2013,03,25,10,38,7.30
2013,03,25,10,39,7.30
2013,03,25,10,40,7.30
2013,03,25,10,41,7.30
2013,03,25,10,42,7.30
2013,03,25,10,43,7.40
2013,03,25,10,44,7.50
2013,03,25,10,45,7.60
2013,03,25,10,46,7.70
2013,03,25,10,47,7.80
2013,03,25,10,48,7.90
2013,03,25,10,49,7.90
2013,03,25,10,50,8.00
2013,03,25,10,51,8.10
2013,03,25,10,52,8.10
2013,03,25,10,53,8.10
2013,03,25,10,54,8.10
2013,03,25,10,55,8.20
2013,03,25,10,56,8.20
2013,03,25,10,57,8.20
2013,03,25,10,58,8.30
2013,03,25,10,59,8.40
2013,03,25,11,00,8.40
2013,03,25,11,01,8.40
2013,03,25,11,02,8.40
2013,03,25,11,03,8.40
2013,03,25,11,04,8.40
2013,03,25,11,05,8.50
2013,03,25,11,06,8.60
2013,03,25,11,07,8.60
2013,03,25,11,08,8.60
2013,03,25,11,09,8.70
2013,03,25,11,10,8.70
2013,03,25,11,11,8.70
2013,03,25,11,12,8.70
2013,03,25,11,13,8.60
2013,03,25,11,14,8.60
2013,03,25,11,15,8.50
2013,03,25,11,16,8.50
2013,03,25,11,17,8.50
2013,03,25,11,18,8.50
2013,03,25,11,19,8.50
2013,03,25,11,20,8.50
2013,03,25,11,21,8.60
2013,03,25,11,22,8.60
2013,03,25,11,23,8.70
2013,03,25,11,24,8.80
2013,03,25,11,25,8.70
2013,03,25,11,26,8.70
2013,03,25,11,27,8.80
2013,03,25,11,28,8.70
2013,03,25,11,29,8.70
2013,03,25,11,30,8.70
2013,03,25,11,31,8.70
2013,03,25,11,32,8.70
2013,03,25,11,33,8.70
2013,03,25,11,34,8.80
2013,03,25,11,35,8.90
2013,03,25,11,36,8.90
2013,03,25,11,37,8.90
2013,03,25,11,38,8.90
2013,03,25,11,39,8.90
2013,03,25,11,40,9.00
2013,03,25,11,41,9.10
2013,03,25,11,42,9.30
2013,03,25,11,43,9.30
2013,03,25,11,44,9.20
2013,03,25,11,45,9.40
2013,03,25,11,46,9.40
2013,03,25,11,47,9.40
2013,03,25,11,48,9.40
2013,03,25,11,49,9.40
2013,03,25,11,50,9.30
2013,03,25,11,51,9.20
2013,03,25,11,52,9.10
2013,03,25,11,53,9.00
2013,03,25,11,54,8.90
2013,03,25,11,55,8.90
2013,03,25,11,56,8.90
2013,03,25,11,57,8.90
2013,03,25,11,58,9.00
2013,03,25,11,59,9.10
2013,03,25,12,00,9.20
2013,03,25,12,01,9.30
2013,03,25,12,02,9.30
2013,03,25,12,03,9.30
2013,03,25,12,04,9.40
2013,03,25,12,05,9.30
2013,03,25,12,06,9.30
2013,03,25,12,07,9.10
2013,03,25,12,08,9.10
2013,03,25,12,09,9.00
2013,03,25,12,10,9.00
2013,03,25,12,11,9.00
2013,03,25,12,12,9.00
2013,03,25,12,13,9.00
2013,03,25,12,14,9.10
2013,03,25,12,15,9.10
2013,03,25,12,16,9.10
2013,03,25,12,17,9.20
2013,03,25,12,18,9.20
2013,03,25,12,19,9.30
2013,03,25,12,20,9.40
2013,03,25,12,21,9.60
2013,03,25,12,22,9.70
2013,03,25,12,23,9.70
2013,03,25,12,24,9.70
2013,03,25,12,25,9.70
2013,03,25,12,26,9.60
2013,03,25,12,27,9.60
2013,03,25,12,28,9.60
2013,03,25,12,29,9.60
2013,03,25,12,30,9.60
2013,03,25,12,31,9.70
2013,03,25,12,32,9.70
2013,03,25,12,33,9.70
2013,03,25,12,34,9.80
2013,03,25,12,35,9.80
2013,03,25,12,36,9.90
2013,03,25,12,37,9.90
2013,03,25,12,38,9.90
2013,03,25,12,39,10.00
2013,03,25,12,40,10.00
2013,03,25,12,41,10.10
2013,03,25,12,42,10.10
2013,03,25,12,43,10.20
2013,03,25,12,44,10.20
2013,03,25,12,45,10.30
2013,03,25,12,46,10.30
2013,03,25,12,47,10.40
2013,03,25,12,48,10.40
2013,03,25,12,49,10.40
2013,03,25,12,50,10.40
2013,03,25,12,51,10.30
2013,03,25,12,52,10.30
2013,03,25,12,53,10.30
2013,03,25,12,54,10.30
2013,03,25,12,55,10.30
2013,03,25,12,56,10.30
2013,03,25,12,57,10.30
2013,03,25,12,58,10.20
2013,03,25,12,59,10.30
2013,03,25,13,00,10.30
2013,03,25,13,01,10.50
2013,03,25,13,02,10.70
2013,03,25,13,03,10.80
2013,03,25,13,04,10.90
2013,03,25,13,05,10.90
2013,03,25,13,06,10.90
2013,03,25,13,07,11.00
2013,03,25,13,08,11.10
2013,03,25,13,09,11.20
2013,03,25,13,10,11.30
2013,03,25,13,11,11.30
2013,03,25,13,12,11.40
2013,03,25,13,13,11.50
2013,03,25,13,14,11.40
2013,03,25,13,15,11.40
2013,03,25,13,16,11.40
2013,03,25,13,17,11.40
2013,03,25,13,18,11.50
2013,03,25,13,19,11.50
2013,03,25,13,20,11.60
2013,03,25,13,21,11.70
2013,03,25,13,22,11.70
2013,03,25,13,23,11.60
2013,03,25,13,24,11.60
2013,03,25,13,25,11.60
2013,03,25,13,26,11.60
2013,03,25,13,27,11.60
2013,03,25,13,28,11.60
2013,03,25,13,29,11.60
2013,03,25,13,30,11.60
2013,03,25,13,31,11.60
2013,03,25,13,32,11.70
2013,03,25,13,33,11.60
2013,03,25,13,34,11.60
2013,03,25,13,35,11.70
2013,03,25,13,36,11.70
2013,03,25,13,37,11.80
2013,03,25,13,38,11.80
2013,03,25,13,39,11.80
2013,03,25,13,40,11.80
2013,03,25,13,41,11.80
2013,03,25,13,42,11.70
2013,03,25,13,43,11.70
2013,03,25,13,44,11.80
2013,03,25,13,45,11.90
2013,03,25,13,46,11.90
2013,03,25,13,47,11.90
2013,03,25,13,48,12.00
2013,03,25,13,49,12.10
2013,03,25,13,50,12.20
2013,03,25,13,51,12.10
2013,03,25,13,52,12.10
2013,03,25,13,53,12.10
2013,03,25,13,54,12.20
2013,03,25,13,55,12.20
2013,03,25,13,56,12.20
2013,03,25,13,57,12.20
2013,03,25,13,58,12.20
2013,03,25,13,59,12.10
2013,03,25,14,00,12.10
2013,03,25,14,01,12.10
2013,03,25,14,02,12.10
2013,03,25,14,03,12.00
2013,03,25,14,04,11.90
2013,03,25,14,05,11.90
2013,03,25,14,06,11.90
2013,03,25,14,07,12.00
2013,03,25,14,08,11.90
2013,03,25,14,09,12.00
2013,03,25,14,10,12.10
2013,03,25,14,11,12.10
2013,03,25,14,12,12.20
2013,03,25,14,13,12.20
2013,03,25,14,14,12.20
2013,03,25,14,15,12.20
2013,03,25,14,16,12.20
2013,03,25,14,17,12.20
2013,03,25,14,18,12.30
2013,03,25,14,19,12.30
2013,03,25,14,20,12.30
2013,03,25,14,21,12.30
2013,03,25,14,22,12.30
2013,03,25,14,23,12.30
2013,03,25,14,24,12.20
2013,03,25,14,25,12.20
2013,03,25,14,26,12.10
2013,03,25,14,27,12.10
2013,03,25,14,28,12.10
2013,03,25,14,29,12.10
2013,03,25,14,30,12.10
2013,03,25,14,31,12.10
2013,03,25,14,32,12.20
2013,03,25,14,33,12.20
2013,03,25,14,34,12.10
2013,03,25,14,35,12.10
2013,03,25,14,36,12.00
2013,03,25,14,37,12.00
2013,03,25,14,38,12.00
2013,03,25,14,39,12.00
2013,03,25,14,40,12.10
2013,03,25,14,41,12.10
2013,03,25,14,42,12.00
2013,03,25,14,43,12.00
2013,03,25,14,44,11.90
2013,03,25,14,45,11.80
2013,03,25,14,46,11.70
2013,03,25,14,47,11.70
2013,03,25,14,48,11.70
2013,03,25,14,49,11.80
2013,03,25,14,50,11.70
2013,03,25,14,51,11.60
2013,03,25,14,52,11.50
2013,03,25,14,53,11.30
2013,03,25,14,54,11.00
2013,03,25,14,55,10.80
2013,03,25,14,56,10.70
2013,03,25,14,57,10.50
2013,03,25,14,58,10.50
2013,03,25,14,59,10.50
2013,03,25,15,00,10.60
2013,03,25,15,01,10.70
2013,03,25,15,02,10.70
2013,03,25,15,03,10.60
2013,03,25,15,04,10.60
2013,03,25,15,05,10.60
2013,03,25,15,06,10.60
2013,03,25,15,07,10.60
2013,03,25,15,08,10.70
2013,03,25,15,09,10.70
2013,03,25,15,10,10.70
2013,03,25,15,11,10.70
2013,03,25,15,12,10.60
2013,03,25,15,13,10.60
2013,03,25,15,14,10.60
2013,03,25,15,15,10.60
2013,03,25,15,16,10.60
2013,03,25,15,17,10.50
2013,03,25,15,18,10.40
2013,03,25,15,19,10.40
2013,03,25,15,20,10.30
2013,03,25,15,21,10.30
2013,03,25,15,22,10.30
2013,03,25,15,23,10.30
2013,03,25,15,24,10.30
2013,03,25,15,25,10.30
2013,03,25,15,26,10.30
2013,03,25,15,27,10.30
2013,03,25,15,28,10.30
2013,03,25,15,29,10.30
2013,03,25,15,30,10.40
2013,03,25,15,31,10.40
2013,03,25,15,32,10.50
2013,03,25,15,33,10.50
2013,03,25,15,34,10.50
2013,03,25,15,35,10.50
2013,03,25,15,36,10.40
2013,03,25,15,37,10.30
2013,03,25,15,38,10.30
2013,03,25,15,39,10.20
2013,03,25,15,40,10.20
2013,03,25,15,41,10.20
2013,03,25,15,42,10.10
2013,03,25,15,43,10.10
2013,03,25,15,44,10.20
2013,03,25,15,45,10.30
2013,03,25,15,46,10.30
2013,03,25,15,47,10.40
2013,03,25,15,48,10.50
2013,03,25,15,49,10.50
2013,03,25,15,50,10.50
2013,03,25,15,51,10.50
2013,03,25,15,52,10.40
2013,03,25,15,53,10.30
2013,03,25,15,54,10.20
2013,03,25,15,55,10.20
2013,03,25,15,56,10.10
2013,03,25,15,57,10.10
2013,03,25,15,58,10.00
2013,03,25,15,59,9.90
2013,03,25,16,00,9.90
2013,03,25,16,01,10.00
2013,03,25,16,02,10.00
2013,03,25,16,03,10.10
2013,03,25,16,04,10.10
2013,03,25,16,05,10.20
2013,03,25,16,06,10.20
2013,03,25,16,07,10.20
2013,03,25,16,08,10.10
2013,03,25,16,09,10.10
2013,03,25,16,10,10.10
2013,03,25,16,11,10.10
2013,03,25,16,12,10.10
2013,03,25,16,13,10.20
2013,03,25,16,14,10.20
2013,03,25,16,15,10.30
2013,03,25,16,16,10.20
2013,03,25,16,17,10.20
2013,03,25,16,18,10.30
2013,03,25,16,19,10.30
2013,03,25,16,20,10.40
2013,03,25,16,21,10.50
2013,03,25,16,22,10.50
2013,03,25,16,23,10.50
2013,03,25,16,24,10.60
2013,03,25,16,25,10.60
2013,03,25,16,26,10.70
2013,03,25,16,27,10.70
2013,03,25,16,28,10.70
2013,03,25,16,29,10.70
2013,03,25,16,30,10.60
2013,03,25,16,31,10.60
2013,03,25,16,32,10.60
2013,03,25,16,33,10.60
2013,03,25,16,34,10.50
2013,03,25,16,35,10.40
2013,03,25,16,36,10.30
2013,03,25,16,37,10.30
2013,03,25,16,38,10.30
2013,03,25,16,39,10.30
2013,03,25,16,40,10.20
2013,03,25,16,41,10.20
2013,03,25,16,42,10.30
2013,03,25,16,43,10.30
2013,03,25,16,44,10.30
2013,03,25,16,45,10.30
2013,03,25,16,46,10.40
2013,03,25,16,47,10.40
2013,03,25,16,48,10.40
2013,03,25,16,49,10.40
2013,03,25,16,50,10.40
2013,03,25,16,51,10.40
2013,03,25,16,52,10.50
2013,03,25,16,53,10.40
2013,03,25,16,54,10.40
2013,03,25,16,55,10.40
2013,03,25,16,56,10.40
2013,03,25,16,57,10.40
2013,03,25,16,58,10.40
2013,03,25,16,59,10.40
2013,03,25,17,00,10.40
2013,03,25,17,01,10.40
2013,03,25,17,02,10.40
2013,03,25,17,03,10.40
2013,03,25,17,04,10.30
2013,03,25,17,05,10.30
2013,03,25,17,06,10.30
2013,03,25,17,07,10.20
2013,03,25,17,08,10.20
2013,03,25,17,09,10.10
2013,03,25,17,10,10.10
2013,03,25,17,11,10.10
2013,03,25,17,12,10.10
2013,03,25,17,13,10.10
2013,03,25,17,14,10.20
2013,03,25,17,15,10.20
2013,03,25,17,16,10.20
2013,03,25,17,17,10.20
2013,03,25,17,18,10.20
2013,03,25,17,19,10.10
2013,03,25,17,20,10.00
2013,03,25,17,21,9.90
2013,03,25,17,22,9.80
2013,03,25,17,23,9.70
2013,03,25,17,24,9.70
2013,03,25,17,25,9.70
2013,03,25,17,26,9.60
2013,03,25,17,27,9.60
2013,03,25,17,28,9.60
2013,03,25,17,29,9.60
2013,03,25,17,30,9.60
2013,03,25,17,31,9.60
2013,03,25,17,32,9.60
2013,03,25,17,33,9.60
2013,03,25,17,34,9.40
2013,03,25,17,35,9.30
2013,03,25,17,36,9.30
2013,03,25,17,37,9.30
2013,03,25,17,38,9.30
2013,03,25,17,39,9.30
2013,03,25,17,40,9.30
2013,03,25,17,41,9.30
2013,03,25,17,42,9.30
2013,03,25,17,43,9.20
2013,03,25,17,44,9.20
2013,03,25,17,45,9.20
2013,03,25,17,46,9.20
2013,03,25,17,47,9.20
2013,03,25,17,48,9.20
2013,03,25,17,49,9.30
2013,03,25,17,50,9.40
2013,03,25,17,51,9.40
2013,03,25,17,52,9.40
2013,03,25,17,53,9.50
2013,03,25,17,54,9.50